Погода в Хамамёзю

Турция     40°47′01″N   35°01′25″E
темп.,
°C
ветер,
м/с
пор.,
м/с
влажн.,
%
обл.,
%
осадки,
мм/ч
давл.,
гПа
погр.,
м
17 июня, чт
чт1700:00+11юз228875 0.1 101295
03:00+10юз228836 0.1 101319
06:00+10ююз229061 0.0 101457
09:00+14юз227434 0.0 1015721
12:00+18зюз555427 0.3 10151626
15:00+19зюз565163 0.3 10151635
18:00+17зюз23609 0.0 101570
21:00+14ю116712 0.0 101611
18 июня, пт
пт1800:00+13ю226877 0.0 101614
03:00+12ю22730 0.0 101611
06:00+12ююз11770 0.0 101612
09:00+18з22590 0.0 1015792
12:00+21зюз23450 0.0 10141573
15:00+23зюз33370 0.0 10131741
18:00+23зюз11400 0.0 10121289
21:00+16вюв33790 0.0 101424
19 июня, сб
сб1900:00+14в22860 0.0 101416
03:00+13всв11820 0.0 101312
06:00+13всв11790 0.0 101415
09:00+19с21590 0.0 1012431
12:00+23с22440 0.0 10111375
15:00+25всв22390 0.0 10092118
18:00+23в43513 0.0 1009940
21:00+16всв22791 0.0 101112
20 июня, вс
вс2000:00+15ссв11795 0.0 101113
03:00+14в11740 0.0 101111
06:00+14в11680 0.0 101211
09:00+20с21490 0.0 1012437
12:00+25ссв22390 0.0 1010978
15:00+26всв33400 0.0 10091383
18:00+24св33502 0.0 1009820
21:00+16всв33865 0.0 101135
21 июня, пн
пн2100:00+14св229053 0.9 101131
03:00+13ссв118236 1.4 101013
06:00+14ссв118191 1.2 101218
09:00+19вюв115711 1.3 1011564
12:00+24ссз11455 0.0 10101347
15:00+26с12410 0.0 10091819
18:00+25ссв32450 0.0 10081299
21:00+18в22875 0.1 101117